MPEC 2001-P47: 2001 PG14

The following Minor Planet Electronic Circular may be linked-to from your own Web pages, but must not otherwise be redistributed electronically.


Read MPEC 2001-P46 Read MPEC 2001-Q01


M.P.E.C. 2001-P47                                Issued 2001 Aug. 15, 16:32 UT

     The Minor Planet Electronic Circulars contain information on unusual
         minor planets and routine data on comets.  They are published
   on behalf of Commission 20 of the International Astronomical Union by the
          Minor Planet Center, Smithsonian Astrophysical Observatory,
                          Cambridge, MA 02138, U.S.A.

             Prepared using the Tamkin Foundation Computer Network

                              MPC@CFA.HARVARD.EDU
          URL http://cfa-www.harvard.edu/iau/mpc.html  ISSN 1523-6714

                                   2001 PG14

Observations:
     K01P14G* C2001 08 14.34179 21 55 15.40 +19 23 24.9          19.1        644
     K01P14G  C2001 08 14.35293 21 55 17.99 +19 21 25.7          18.5        644
     K01P14G  C2001 08 14.36324 21 55 20.40 +19 19 34.6          18.2        644
     K01P14G  C2001 08 15.00241 21 58 09.01 +17 26 31.1          17.9 R      046
     K01P14G  C2001 08 15.00339 21 58 09.17 +17 26 21.3                      046
     K01P14G  C2001 08 15.00404 21 58 09.33 +17 26 13.8          18.3 R      046
     K01P14G  C2001 08 15.00515 21 58 09.57 +17 26 02.0                      046
     K01P14G  C2001 08 15.00677 21 58 09.98 +17 25 45.4                      046
     K01P14G  C2001 08 15.00731 21 58 10.06 +17 25 39.8          17.8 R      046
     K01P14G  C2001 08 15.00786 21 58 10.23 +17 25 34.7                      046
     K01P14G  C2001 08 15.00876 21 58 10.35 +17 25 24.9          17.9 R      046
     K01P14G  C2001 08 15.01770 21 58 13.50 +17 24 07.1                      620
     K01P14G  C2001 08 15.01938 21 58 13.78 +17 23 49.0                      620
     K01P14G  C2001 08 15.02888 21 58 15.60 +17 22 09.0                      620
     K01P14G  C2001 08 15.05845 21 58 21.82 +17 16 42.9                      557
     K01P14G  C2001 08 15.05898 21 58 21.89 +17 16 37.6                      557
     K01P14G  C2001 08 15.05948 21 58 22.06 +17 16 32.1                      557
     K01P14G  C2001 08 15.06001 21 58 22.15 +17 16 26.9                      557
     K01P14G  C2001 08 15.06052 21 58 22.32 +17 16 20.9                      557
     K01P14G  C2001 08 15.06104 21 58 22.44 +17 16 15.8                      557
     K01P14G  C2001 08 15.06155 21 58 22.53 +17 16 10.4                      557
     K01P14G  C2001 08 15.06207 21 58 22.66 +17 16 05.3          18.7 V      557
     K01P14G  C2001 08 15.06969 21 58 25.01 +17 15 01.3          17.4 R      946
     K01P14G  C2001 08 15.07112 21 58 25.38 +17 14 46.9                      946
     K01P14G  C2001 08 15.08888 21 58 29.45 +17 11 38.5                      946
     K01P14G  C2001 08 15.51334 22 00 15.52 +15 59 14.1          19.8        608
     K01P14G  C2001 08 15.51384 22 00 15.68 +15 59 08.8          19.9        608
     K01P14G  C2001 08 15.52448 22 00 17.87 +15 57 20.1          19.1        608
     K01P14G  C2001 08 15.52499 22 00 18.05 +15 57 15.1          20.0        608
     K01P14G  C2001 08 15.53542 22 00 20.16 +15 55 27.7          19.0        608
     K01P14G  C2001 08 15.53592 22 00 20.30 +15 55 22.0          20.5        608
     K01P14G  C2001 08 15.57712 22 00 29.11 +15 48 17.3          19.7        608
     K01P14G  C2001 08 15.57761 22 00 29.22 +15 48 12.6          18.8        608
     K01P14G  C2001 08 15.58760 22 00 31.39 +15 46 29.2          19.4        608
     K01P14G  C2001 08 15.58858 22 00 31.60 +15 46 19.5          19.2        608
     K01P14G  C2001 08 15.59868 22 00 33.81 +15 44 35.1          19.3        608
     K01P14G  C2001 08 15.59916 22 00 33.92 +15 44 30.2          19.1        608

Observer details:
046 Klet.  Observers M. Tichy, M. Kocer.  0.57-m f/5.2 reflector + CCD.
557 Ondrejov.  Observer P. Kusnirak.  0.65-m f/3.6 reflector + CCD.
608 Haleakala-NEAT/MSSS.  Observers E. F. Helin, S. Pravdo, K. Lawrence,
    P. Kervin, R. Maeda, J. Africano, M. Hicks.  1.2-m reflector + CCD.
620 Observatorio Astronomico de Mallorca.  Observer S. Sanchez.
    0.30-m f/3.3 Schmidt-Cassegrain + CCD.
644 Palomar Mountain/NEAT.  Observers E. F. Helin, S. Pravdo, K. Lawrence,
    M. Hicks, E. Hovland, T. Bickler, J. Schroeder, L. Scherr, R. Thicksten,
    A. Deetz.  1.2-m Schmidt + CCD.
946 Ametlla de Mar.  Observer J. Nomen.  0.40-m f/2.0 Schmidt + CCD.

Orbital elements:
2001 PG14
Epoch 2001 July 30.0 TT = JDT 2452120.5                 Spahr
M  17.80524              (2000.0)            P               Q
n   0.54790624     Peri.  115.29939     +0.00868843     +0.99677126
a   1.4791034      Node   154.80726     -0.97160337     +0.02729093
e   0.3383485      Incl.   10.80829     -0.23645590     -0.07551335
P   1.80           H   22.4           G   0.15
From 37 observations 2001 Aug. 14-15.

Ephemeris:
2001 PG14                a,e,i = 1.48, 0.34, 11                  q = 0.9787
Date    TT    R. A. (2000) Decl.     Delta      r     Elong.  Phase     V
2001 08 09    21 24.45   +36 17.0    0.081    1.065   127.8    48.8    18.9
2001 08 14    21 53.68   +20 25.3    0.086    1.084   144.9    32.5    18.6
2001 08 19    22 12.72   +06 52.8    0.099    1.105   159.7    18.5    18.5
2001 08 24    22 25.57   -03 20.3    0.117    1.127   171.5     7.7    18.5
2001 08 29    22 34.59   -10 37.9    0.140    1.150   178.3     1.4    18.6
2001 09 03    22 41.16   -15 44.1    0.166    1.173   171.7     7.1    19.4
2001 09 08    22 46.17   -19 16.5    0.195    1.197   165.6    12.1    20.0
2001 09 13    22 50.22   -21 41.5    0.227    1.222   160.4    16.1    20.5
2001 09 18    22 53.76   -23 16.9    0.261    1.247   155.6    19.4    20.9
2001 09 23    22 57.15   -24 14.9    0.297    1.272   151.3    22.2    21.4
2001 09 28    23 00.60   -24 44.3    0.336    1.298   147.4    24.6    21.7
2001 10 03    23 04.22   -24 51.9    0.377    1.323   143.6    26.7    22.1
2001 10 08    23 08.09   -24 42.4    0.420    1.348   140.0    28.4    22.4

Timothy B. Spahr             (C) Copyright 2001 MPC           M.P.E.C. 2001-P47

Read MPEC 2001-P46 Read MPEC 2001-Q01


Our Web policy. Index to the CBAT/MPC/ICQ pages.

MPC